[[{"header":{"parameterUnit":"m.s-1","parameterCategory":1,"la1":30.2991,"la2":30.254,"lo1":-89.0895,"lo2":-89.0444,"dy":0.0017,"dx":0.0017,"nx":28,"ny":28,"refTime":"2023-07-26T03:00:00:Z","depth":0,"parameterNumber":2,"parameterNumberName":"U-component_of_WINDS"},"data":[0,0,0,0,0,0,0,0,0,0,0,0,0,0,0,0,0,0,0,0,0,0,0,0,0,0,0,0,0,0,0,0,0,0,0,0,0,0,0,0,0,0,0,0,0,0,0,0,0,0,0,0,0,0,0,0,0,0,1.6207,1.6208,0,1.6256,1.6256,1.6257,1.626,1.6259,1.6259,1.6258,1.6304,1.6306,1.6308,0,0,0,0,0,0,0,0,0,0,0,0,0,1.6113,1.6114,1.6207,1.6208,1.6209,1.6256,1.6256,1.6257,1.626,1.6259,1.6258,1.6258,1.6304,1.6306,1.6308,0,0,0,0,0,0,0,0,0,0,0,0,0,1.6157,1.6115,1.6207,1.6216,1.6217,1.6256,1.6256,1.6257,1.626,1.6259,1.6258,1.6257,1.6303,1.6306,1.6308,1.6341,0,0,1.6316,1.6318,0,0,0,0,0,0,0,0,1.6154,1.616,1.6214,1.6215,1.6217,1.6251,1.624,1.6285,1.626,1.6243,1.6258,1.6257,1.6287,1.6291,1.6302,1.6343,1.6345,1.6317,1.6318,1.6319,1.632,0,0,0,0,0,0,0,1.6151,1.6158,1.6226,1.6215,1.6216,1.6216,1.6221,1.6249,1.6269,1.6245,1.6245,1.6251,1.6288,1.6299,1.6303,1.6346,1.6317,1.6319,1.632,1.6322,1.6414,1.6414,0,0,0,0,0,0,1.6147,1.6156,1.6225,1.6228,1.6183,1.6218,1.6224,1.6241,1.6269,1.6273,1.6252,1.6251,1.6295,1.63,1.6305,1.6343,1.6319,1.6322,1.6323,1.6413,1.6414,1.6415,0,0,0,0,0,0,1.6145,1.6153,1.6223,1.6192,1.6201,1.622,1.6239,1.6242,1.6254,1.6274,1.6277,1.626,1.6295,1.6301,1.6332,1.6345,1.6323,1.6325,1.6412,1.6413,1.6414,1.6421,0,0,0,0,0,0,1.6142,1.6152,1.6166,1.6192,1.6202,1.6251,1.624,1.6244,1.6259,1.6258,1.6283,1.6286,1.6295,1.6328,1.6334,1.6348,1.6327,1.6411,1.6412,1.6414,1.642,1.6422,1.6425,0,0,0,0,0,1.6139,1.6166,1.6167,1.6175,1.622,1.6251,1.6257,1.6267,1.626,1.6273,1.6285,1.6285,1.6342,1.6331,1.6338,1.6353,1.641,1.6412,1.6414,1.6418,1.6422,1.6424,0,0,0,0,0,0,1.6141,1.617,1.6171,1.6208,1.6227,1.6252,1.6269,1.6271,1.6292,1.629,1.6301,1.6306,1.6336,1.6348,1.6334,1.6384,1.6375,1.6379,1.6376,1.6379,1.6382,1.6378,1.633,0,0,0,0,0,1.6145,1.617,1.6193,1.6223,1.6233,1.6249,1.6263,1.6269,1.6289,1.6297,1.6312,1.6331,1.6352,1.6367,1.6388,1.6421,1.6425,1.6435,1.6437,1.6439,1.6442,1.6458,1.6462,1.6421,1.6421,1.6421,0,0,1.6155,1.6174,1.6189,1.6224,1.624,1.6263,1.6256,1.6281,1.6298,1.6301,1.633,1.6342,1.6363,1.6395,1.6409,1.6405,1.6454,1.6442,1.6443,1.6445,1.646,1.6464,1.6468,1.6423,1.6422,1.6422,0,0,1.6185,1.6202,1.6228,1.6244,1.6268,1.6278,1.6284,1.6309,1.6316,1.6347,1.6349,1.6368,1.6406,1.642,1.6432,1.6465,1.6465,1.6472,1.6485,1.65,1.6503,1.6506,1.6516,1.652,1.6475,1.6475,1.6475,0,1.6193,1.623,1.6241,1.6266,1.628,1.6284,1.6309,1.6324,1.6353,1.6362,1.6357,1.6404,1.6418,1.6452,1.646,1.6471,1.6476,1.6469,1.6502,1.6505,1.6508,1.6517,1.6521,1.6475,1.6475,1.6475,1.6475,0,1.6238,1.6263,1.6281,1.6309,1.6326,1.6351,1.6364,1.6379,1.6383,1.6393,1.6423,1.644,1.6464,1.6473,1.6477,1.6507,1.6503,1.65,1.6491,1.6512,1.6521,1.6525,1.6476,1.6476,1.6476,1.6475,0,0,1.6271,1.6304,1.631,1.6322,1.6349,1.6367,1.6391,1.6415,1.6427,1.6447,1.6466,1.6497,1.6494,1.6508,1.6513,1.6527,1.655,1.6522,1.6523,1.6525,1.6581,1.6582,1.6586,1.655,1.6551,1.6551,1.6578,0,1.6302,1.6346,1.6356,1.6393,1.6414,1.6418,1.6438,1.6455,1.6465,1.6484,1.6494,1.6516,1.6511,1.6519,1.6533,1.6544,1.6561,1.6542,1.6566,1.6567,1.6559,1.6591,1.6593,1.6618,1.6582,1.6583,1.6583,0,1.6344,1.6365,1.6404,1.6425,1.6435,1.6453,1.6475,1.6494,1.6512,1.6518,1.6533,1.6537,1.656,1.655,1.658,1.6568,1.6578,1.6584,1.6586,1.6587,1.6576,1.6592,1.6627,1.663,1.6589,1.6589,1.6588,0,1.6361,1.6399,1.6427,1.6437,1.6464,1.6476,1.6487,1.6505,1.6518,1.6537,1.6545,1.6566,1.6577,1.6593,1.6601,1.6593,1.6631,1.6622,1.6635,1.6634,1.6642,1.6641,1.6676,1.665,1.665,1.665,1.665,0,1.6394,1.6418,1.6435,1.6452,1.6478,1.6488,1.6512,1.6523,1.6539,1.6557,1.6561,1.6577,1.6589,1.6606,1.6613,1.6636,1.6641,1.6645,1.6647,1.6644,1.6644,1.665,1.6648,1.6651,1.6651,1.6651,1.6651,0,1.6418,1.6431,1.6461,1.6483,1.6489,1.6506,1.6524,1.654,1.655,1.6572,1.6578,1.6592,1.6613,1.6623,1.6649,1.6653,1.6679,1.668,1.6673,1.6673,1.6685,1.6683,1.6725,1.673,1.6702,1.6702,1.6702,0,1.6437,1.6455,1.6479,1.6492,1.6503,1.6524,1.6537,1.6547,1.6561,1.6582,1.6595,1.6616,1.6633,1.6665,1.6677,1.6696,1.6697,1.671,1.67,1.6696,1.6695,1.6693,1.6694,1.6712,1.6712,1.6712,1.6712,0,1.647,1.6475,1.6495,1.6516,1.6532,1.655,1.6566,1.6576,1.6589,1.6603,1.6625,1.6638,1.6664,1.6684,1.6703,1.6713,1.6714,1.6716,1.6719,1.6717,1.6711,1.6713,1.6677,1.6714,1.6714,1.6714,1.6714,1.6714,1.6491,1.6507,1.6525,1.6547,1.656,1.6576,1.6591,1.6602,1.6621,1.6643,1.6647,1.6669,1.6686,1.6712,1.6722,1.6739,1.6736,1.6741,1.6743,1.6744,1.6743,1.671,1.6742,1.6742,1.6742,1.6742,1.6742,0,1.6523,1.6535,1.6554,1.6578,1.6594,1.6594,1.6612,1.6625,1.6645,1.6661,1.6677,1.6701,1.672,1.6733,1.6752,1.6762,1.6763,1.6766,1.6765,1.6767,1.6746,1.674,1.6765,1.6765,1.6765,1.6765,1.6765,1.6765,1.6541,1.6566,1.6573,1.6605,1.6617,1.6639,1.6649,1.6662,1.6675,1.6701,1.6717,1.6725,1.6739,1.6759,1.6776,1.6779,1.6785,1.6789,1.6791,1.6771,1.6769,1.6766,1.6761,1.679,1.679,1.6811,1.6811,1.6811]},{"header":{"parameterUnit":"m.s-1","parameterCategory":1,"la1":30.2991,"la2":30.254,"lo1":-89.0895,"lo2":-89.0444,"dy":0.0017,"dx":0.0017,"nx":28,"ny":28,"refTime":"2023-07-26T03:00:00:Z","depth":0,"parameterNumber":3,"parameterNumberName":"V-component_of_WINDS"},"data":[0,0,0,0,0,0,0,0,0,0,0,0,0,0,0,0,0,0,0,0,0,0,0,0,0,0,0,0,0,0,0,0,0,0,0,0,0,0,0,0,0,0,0,0,0,0,0,0,0,0,0,0,0,0,0,0,0,0,3.1185,3.1184,0,3.1123,3.1122,3.1121,3.1031,3.1029,3.1028,3.1026,3.0964,3.0964,3.0963,0,0,0,0,0,0,0,0,0,0,0,0,0,3.1226,3.1226,3.1185,3.1184,3.1184,3.1123,3.1122,3.1121,3.1031,3.1029,3.1028,3.1026,3.0964,3.0964,3.0963,0,0,0,0,0,0,0,0,0,0,0,0,0,3.1191,3.1226,3.1185,3.1131,3.1126,3.1123,3.1122,3.1121,3.1032,3.1029,3.1027,3.1025,3.0964,3.0964,3.0963,3.1009,0,0,3.0962,3.0962,0,0,0,0,0,0,0,0,3.1193,3.1189,3.114,3.1135,3.1129,3.1082,3.1113,3.1083,3.1032,3.1068,3.1026,3.1024,3.1005,3.1001,3.0995,3.1006,3.1003,3.0962,3.0962,3.0962,3.0962,0,0,0,0,0,0,0,3.1195,3.1191,3.116,3.1139,3.1133,3.111,3.1103,3.1107,3.105,3.1064,3.1058,3.1051,3.1002,3.0995,3.0993,3.1002,3.0962,3.0962,3.0962,3.0962,3.1044,3.1047,0,0,0,0,0,0,3.1206,3.1194,3.1162,3.1159,3.1156,3.1111,3.1103,3.11,3.105,3.104,3.1053,3.1047,3.0997,3.0993,3.099,3.1038,3.0962,3.0962,3.0962,3.1042,3.1045,3.1047,0,0,0,0,0,0,3.1207,3.1204,3.1165,3.1174,3.1168,3.1113,3.111,3.11,3.1093,3.1042,3.1031,3.1057,3.0995,3.0991,3.1004,3.1035,3.0962,3.0961,3.1039,3.1043,3.1046,3.1135,0,0,0,0,0,0,3.1208,3.1205,3.1221,3.1175,3.1168,3.118,3.1112,3.11,3.1093,3.1084,3.1043,3.1034,3.0993,3.1005,3.1004,3.1033,3.0961,3.1036,3.1041,3.1045,3.1129,3.1141,3.1152,0,0,0,0,0,3.121,3.125,3.1223,3.1219,3.1187,3.1182,3.1178,3.113,3.1096,3.1112,3.1078,3.1035,3.1032,3.1007,3.1005,3.1035,3.1034,3.104,3.1045,3.1124,3.1139,3.1152,0,0,0,0,0,0,3.1301,3.1243,3.1212,3.1238,3.1216,3.1167,3.1186,3.1147,3.1134,3.1127,3.1068,3.106,3.108,3.1059,3.1032,3.1074,3.1026,3.1031,3.1087,3.1101,3.1112,3.1116,3.0961,0,0,0,0,0,3.1324,3.1325,3.1274,3.1302,3.1292,3.1241,3.1237,3.1202,3.1176,3.1167,3.1134,3.1112,3.1105,3.1102,3.1093,3.1126,3.1115,3.1145,3.1157,3.1166,3.1171,3.1184,3.1196,3.1065,3.1065,3.1065,0,0,3.1372,3.134,3.1344,3.1319,3.1297,3.1299,3.1234,3.1239,3.1239,3.1167,3.1177,3.1153,3.1124,3.1146,3.1155,3.1129,3.1205,3.1173,3.1181,3.118,3.1191,3.1203,3.1215,3.1069,3.1068,3.1067,0,0,3.1459,3.1436,3.1455,3.1435,3.1403,3.1369,3.1374,3.133,3.1311,3.132,3.1266,3.1266,3.1257,3.1237,3.1226,3.1305,3.1263,3.1304,3.1362,3.1376,3.1386,3.1395,3.1421,3.1431,3.1309,3.1309,3.1309,0,3.1523,3.1522,3.1471,3.1478,3.1468,3.1403,3.1421,3.1404,3.1372,3.1366,3.1338,3.1323,3.1299,3.1315,3.1334,3.1328,3.1331,3.1307,3.1389,3.1397,3.1404,3.1429,3.1439,3.1314,3.1313,3.1313,3.1312,0,3.1601,3.1602,3.1621,3.159,3.1582,3.1596,3.1545,3.1544,3.1509,3.1478,3.1487,3.1456,3.1439,3.144,3.1407,3.1451,3.1436,3.14,3.1349,3.1423,3.1444,3.1453,3.1321,3.1319,3.1318,3.1317,0,0,3.1743,3.1683,3.169,3.1675,3.1634,3.1634,3.1644,3.1627,3.1625,3.1605,3.1611,3.1604,3.1569,3.1557,3.1521,3.1533,3.1595,3.1494,3.1493,3.1512,3.1639,3.1666,3.1677,3.1568,3.1569,3.1571,3.1641,0,3.1821,3.1834,3.1787,3.1812,3.1811,3.1749,3.1758,3.1734,3.1705,3.17,3.1667,3.1662,3.1618,3.161,3.1619,3.1585,3.1619,3.158,3.1571,3.1572,3.1579,3.1689,3.1718,3.1785,3.1649,3.1651,3.1652,0,3.1913,3.1897,3.1922,3.1878,3.1876,3.1885,3.1864,3.186,3.1831,3.1809,3.1795,3.1753,3.1758,3.1712,3.1718,3.1692,3.1686,3.1669,3.167,3.1667,3.1615,3.1686,3.1806,3.1816,3.1665,3.1664,3.1663,0,3.2012,3.1996,3.2008,3.1997,3.1948,3.1955,3.1935,3.1903,3.1895,3.1877,3.1871,3.1855,3.1846,3.1834,3.1788,3.1758,3.1799,3.1749,3.1779,3.178,3.179,3.1789,3.1908,3.1789,3.1789,3.1789,3.1788,0,3.2103,3.212,3.2052,3.2059,3.2076,3.2022,3.2041,3.2014,3.1987,3.1987,3.1933,3.1935,3.1875,3.187,3.1834,3.1844,3.1841,3.1822,3.1812,3.1826,3.1828,3.182,3.1813,3.1791,3.1791,3.179,3.179,0,3.2216,3.2171,3.218,3.2132,3.212,3.2135,3.2093,3.2098,3.2065,3.2066,3.2064,3.2012,3.2003,3.1957,3.1937,3.1913,3.1934,3.1916,3.1944,3.1937,3.1969,3.1966,3.2086,3.2098,3.1973,3.1974,3.1976,0,3.2276,3.2287,3.224,3.2237,3.2218,3.2214,3.2205,3.2152,3.2145,3.2112,3.212,3.2107,3.2093,3.2081,3.2042,3.2026,3.2005,3.2048,3.2003,3.2016,3.2004,3.2003,3.2003,3.2058,3.206,3.2061,3.2062,0,3.2386,3.2363,3.2353,3.2334,3.2325,3.2308,3.2288,3.2288,3.2229,3.2224,3.2214,3.2203,3.2182,3.2169,3.2146,3.2125,3.2083,3.2077,3.2083,3.2096,3.2111,3.2101,3.1969,3.2074,3.2073,3.2072,3.2071,3.2071,3.2473,3.2479,3.2447,3.2437,3.2416,3.2398,3.2399,3.2366,3.2357,3.2335,3.2305,3.2298,3.2268,3.2233,3.2214,3.2208,3.2184,3.2193,3.2195,3.2198,3.2204,3.2114,3.2204,3.2203,3.2203,3.2202,3.2202,0,3.2578,3.2554,3.2546,3.2518,3.251,3.2472,3.2448,3.2443,3.2438,3.2413,3.24,3.2387,3.2374,3.2333,3.2315,3.2318,3.2298,3.2315,3.2313,3.2308,3.2227,3.2223,3.2331,3.2331,3.2331,3.2331,3.2331,3.2331,3.2632,3.2641,3.2614,3.2612,3.2587,3.258,3.2569,3.2552,3.2531,3.252,3.2508,3.2482,3.245,3.2429,3.2414,3.2402,3.2397,3.242,3.2402,3.2327,3.2314,3.2303,3.2298,3.242,3.242,3.2483,3.2484,3.2484]}]]